Address 0xa64bae0bed226e2691e14619093cd38351bbeffd

Txn Hash
Block
From
To
Value [Txn Fee]
0xaa2cc9c57fc38f128df4053780ca91aef962b3f174fe1d5634953f775fba8d7797592002021-06-15 16:35:263 days 23 hrs ago0xa64bae0bed226e2691e14619093cd38351bbeffdOUT 0x2f92f82ae47042dc6072e6a11375e55576a5270f0 BNB0.0002921
0xfeba39484efec4686f21bef96442aa9d7c3bd88fd808d7edb4c2618fcd44877e97571022021-06-15 14:50:324 days 1 hr ago0xa64bae0bed226e2691e14619093cd38351bbeffdOUT 0x2f92f82ae47042dc6072e6a11375e55576a5270f0 BNB0.00029222
0xa3db894106e6154b7a13e66674ecf3f8c315233664e4fb0aa59d8068a9aae59c97570132021-06-15 14:46:054 days 1 hr ago0xa64bae0bed226e2691e14619093cd38351bbeffdOUT 0x3bcfafb914fdf02950a49bdf14caa5d6904b93050 BNB0.01765515
0xc08b3be485423ad2f787d2053e465ccf0b374d9a66c3ec06bb6ad973481b761597570012021-06-15 14:45:294 days 1 hr ago0xa64bae0bed226e2691e14619093cd38351bbeffdOUT 0x2f92f82ae47042dc6072e6a11375e55576a5270f0 BNB0.0002921
0x443645927659a79ac3d2d11f9f8756c539d971cb268d74d6756385f6a0573f5097568582021-06-15 14:38:204 days 1 hr ago0xa64bae0bed226e2691e14619093cd38351bbeffdOUT 0x2f92f82ae47042dc6072e6a11375e55576a5270f0 BNB0.0002921
0xb4eb0b0558533db007adcbf26567f2b5e5e2cf8ea59d209082e42752a985c58f97568432021-06-15 14:37:354 days 1 hr ago0xa64bae0bed226e2691e14619093cd38351bbeffdOUT 0x2f92f82ae47042dc6072e6a11375e55576a5270f0 BNB0.0004421
0xcfb6c02506ee0e64b439b4a219556b2140726c4efa30cbd4cc31104329a937be97516222021-06-15 10:16:314 days 6 hrs ago0xa64bae0bed226e2691e14619093cd38351bbeffdOUT 0x3bcfafb914fdf02950a49bdf14caa5d6904b93050 BNB0.00049438
0x034f495f7ee262c536d430e01cc657a65955ef5db054f278d20b8ae92acdca7697516122021-06-15 10:16:014 days 6 hrs ago0xa64bae0bed226e2691e14619093cd38351bbeffdOUT 0x2f92f82ae47042dc6072e6a11375e55576a5270f0 BNB0.00044198
0x7f2da138c45e1eed85574c7d99882be164a685dd362777e5da934c6f1019a25f97515612021-06-15 10:13:284 days 6 hrs ago0xa64bae0bed226e2691e14619093cd38351bbeffdOUT 0x3bcfafb914fdf02950a49bdf14caa5d6904b93050 BNB0.00049438
0x6bb53b0a76aa06d692ffd300c21485f12ed4ff619b7d800d30de808388c5ec8b97515402021-06-15 10:12:254 days 6 hrs ago0xa64bae0bed226e2691e14619093cd38351bbeffdOUT 0x2f92f82ae47042dc6072e6a11375e55576a5270f0 BNB0.00044198
0x6da42aad4f404a19ed24d88c90eaf20972b7be11eb62e6068e61808e15f7f2b097254482021-06-14 12:27:495 days 3 hrs ago0xa64bae0bed226e2691e14619093cd38351bbeffdOUT 0x3bcfafb914fdf02950a49bdf14caa5d6904b93050 BNB0.0004945
0x8aacc8e8046362f2a32450f3fbadba9e1436f2b379fe878699f024a545e46df397254352021-06-14 12:27:105 days 3 hrs ago0xa64bae0bed226e2691e14619093cd38351bbeffdOUT 0x2f92f82ae47042dc6072e6a11375e55576a5270f0 BNB0.0004421
0x0da839a84d2e1a1fe05b018028e1fd68e6de9be9ce892b86562e312ff2dc23f197250552021-06-14 12:08:105 days 4 hrs ago0xa64bae0bed226e2691e14619093cd38351bbeffdOUT 0x3bcfafb914fdf02950a49bdf14caa5d6904b93050 BNB0.00049342
0x14af6acf6f917632e691e728021f516656e1cf0ce07a63d611bf5563170be7d397250502021-06-14 12:07:555 days 4 hrs ago0xa64bae0bed226e2691e14619093cd38351bbeffdOUT 0x2f92f82ae47042dc6072e6a11375e55576a5270f0 BNB0.00044114
0x0b822206fc20b1eac9fbd2e5a651f78a2da92dd6b0424a5451fa13666b5a981597249362021-06-14 12:02:135 days 4 hrs ago0xa64bae0bed226e2691e14619093cd38351bbeffdOUT Contract Creation0 BNB0.00426378
0x7423eeeb02b84f6d3dddbde04053f165231f4284b20538271d49139f848b067597249262021-06-14 12:01:435 days 4 hrs ago0xa64bae0bed226e2691e14619093cd38351bbeffdOUT Contract Creation0 BNB0.01112458
0x252b2c9f6f7fa63968172fbb24db9f4cfaa7595548de0150e45470a05e93903496742972021-06-12 17:50:166 days 22 hrs ago0xa64bae0bed226e2691e14619093cd38351bbeffdOUT 0xf7807f9efbeac6667e5d183cda4c8dbc9db45e3f0 BNB0.00050675
0x9e76fab2d4e56786e6911493e28894afea7552e643938e6cbd1c11c08b6794f996742902021-06-12 17:49:556 days 22 hrs ago0xa64bae0bed226e2691e14619093cd38351bbeffdOUT 0x23094daabed6c49714e7350f73eb6ae9c477b58d0 BNB0.00044666
0x64b4162708ec196d1a5f3a70007b96a280fbd9fe6001fa5a3ea272aef933102196742702021-06-12 17:48:556 days 22 hrs ago0xa64bae0bed226e2691e14619093cd38351bbeffdOUT 0xf7807f9efbeac6667e5d183cda4c8dbc9db45e3f0 BNB0.00050675
0x873d34acdb7507176ab9d63d6bf4ba3e4f23f8d4019633483f0a96545865d8f996742622021-06-12 17:48:316 days 22 hrs ago0xa64bae0bed226e2691e14619093cd38351bbeffdOUT 0x23094daabed6c49714e7350f73eb6ae9c477b58d0 BNB0.00044666
0xb66e9aacb41b930b69b6735465345c3f9c8210ecf9f56a5a0835ca00e1532f1b96742512021-06-12 17:47:586 days 22 hrs ago0xa64bae0bed226e2691e14619093cd38351bbeffdOUT 0xf7807f9efbeac6667e5d183cda4c8dbc9db45e3f0 BNB0.00050675
0x90ed275f30de6b148646f61be16a9c90ded1c97eb15a5afea770af72ae7298e496742412021-06-12 17:47:286 days 22 hrs ago0xa64bae0bed226e2691e14619093cd38351bbeffdOUT 0x23094daabed6c49714e7350f73eb6ae9c477b58d0 BNB0.00044666
0x7deee747a1a27f671f8901bf62bf564f3a0479938df0c8c2a6d101b2d186404c96742172021-06-12 17:46:166 days 22 hrs ago0xa64bae0bed226e2691e14619093cd38351bbeffdOUT 0x4ed13d5f61ee04d0267ac4be143cd95e8adaeb300 BNB0.00027513
0x8433b944a00642b900cfc2e025d450d1f99f68b7e3516ce2e09432b07874865b96742102021-06-12 17:45:556 days 22 hrs ago0xa64bae0bed226e2691e14619093cd38351bbeffdOUT Contract Creation0 BNB0.00445016
0x85dd1c50cbe87908d65e053f5ec419911bde9fa5ad3cc373364f25cb3369267e96742032021-06-12 17:45:346 days 22 hrs ago0xa64bae0bed226e2691e14619093cd38351bbeffdOUT Contract Creation0 BNB0.00921633
[ Download CSV Export 
Parent Txn Hash Block From To Value
Loading

Contract Name:
0 BNB

Compiler Version
0

Optimization Enabled:
0 BNB

Other Settings:
-NA-
Block Transaction Gas Used Reward
Age Block Fee Address BC Fee Address Voting Power Jailed Incoming
Block Uncle Number Difficulty Gas Used Reward
Loading